Flag for U.S.A. Weather past 2 weeks in Myrtle Beach, South Carolina, U.S.A.

Now
52 °F

Clear.


Feels Like: 48 °F
Forecast: 39 / 51 °F
Wind: 12 mph from Southwest

Location: Myrtle Beach Air Force Base

Current Time: Jan 29, 2015 at 10:03:37 PM

Latest Report: Jan 29, 2015 at 8:45 PM


Visibility: 10 mi

Pressure: 30.18 "Hg

Humidity: 58%

Dew point: 37 °F

Location of Myrtle BeachLocation

Historic Weather in Myrtle Beach — Graph

°F

Myrtle Beach temperature yesterday

Maximum temperature yesterday: 46 °F (at 2:45 PM)
Minimum temperature yesterday: 30 °F (at 7:45 AM)
Average temperature yesterday: 36 °F

Past Weeks' High & Low Weather Summary

 TemperatureHumidityPressure
High68 °F (Jan 24, 1:15 AM)94% (Jan 18, 5:55 AM)30.40 "Hg (Jan 18, 5:55 AM)
Low27 °F (Jan 29, 3:55 AM)27% (Jan 19, 11:45 AM)29.53 "Hg (Jan 24, 5:55 AM)
Average47 °F68%30.06 "Hg
* Reported Jan 14 8:45 PM — Jan 29 8:45 PM, Myrtle Beach, Weather by CustomWeather, © 2014

Note: Actual official high and low records may vary slightly from our data, if they occured in-between our weather recording intervals... More about our weather records

Advertising

Myrtle Beach weather history for previous 24 hours

 ConditionsComfort  
Time TempWeatherWind HumidityBarometerVisibility
8:45 PM
Jan 29
52 °FClear.12 mph58%30.18 "Hg10 mi
7:45 PM52 °FClear.9 mph58%30.19 "Hg10 mi
6:45 PM48 °FClear.12 mph62%30.19 "Hg10 mi
5:45 PM48 °FClear.12 mph58%30.23 "Hg10 mi
4:45 PM50 °FSunny.12 mph50%30.24 "Hg10 mi
3:45 PM50 °FSunny.10 mph47%30.27 "Hg10 mi
2:45 PM48 °FSunny.10 mph50%30.28 "Hg10 mi
1:45 PM48 °FSunny.10 mph46%30.29 "Hg10 mi
12:45 PM48 °FSunny.12 mph46%30.34 "Hg10 mi
11:45 AM48 °FSunny.12 mph43%30.36 "Hg10 mi
10:47 AM46 °FPassing clouds.8 mph40%30.39 "Hg10 mi
9:47 AM43 °FScattered clouds.8 mph53%30.40 "Hg10 mi
8:45 AM34 °FSunny.6 mph81%30.40 "Hg10 mi
7:50 AM28 °FSunny.6 mph80%30.40 "Hg10 mi
6:46 AM27 °FClear.6 mph86%30.37 "Hg10 mi
5:55 AM28 °FClear.3 mph80%30.36 "Hg10 mi
5:35 AM28 °FClear.No wind80%30.36 "Hg10 mi
5:15 AM27 °FClear.No wind86%30.36 "Hg10 mi
4:55 AM28 °FClear.No wind80%30.36 "Hg10 mi
4:35 AM28 °FClear.No wind80%30.35 "Hg10 mi
4:15 AM27 °FClear.No wind86%30.36 "Hg10 mi
3:55 AM27 °FClear.3 mph80%30.36 "Hg10 mi
3:35 AM28 °FClear.3 mph80%30.36 "Hg10 mi
3:15 AM28 °FClear.5 mph80%30.35 "Hg10 mi
2:55 AM28 °FClear.No wind74%30.36 "Hg10 mi
2:35 AM28 °FClear.No wind74%30.36 "Hg10 mi
2:15 AM28 °FClear.5 mph80%30.36 "Hg10 mi
1:55 AM28 °FClear.No wind80%30.36 "Hg10 mi
1:35 AM28 °FClear.No wind74%30.36 "Hg10 mi
1:15 AM28 °FClear.3 mph80%30.37 "Hg10 mi
12:55 AM28 °FClear.5 mph80%30.37 "Hg10 mi
12:35 AM28 °FClear.No wind80%30.37 "Hg10 mi
12:15 AM30 °FClear.3 mph80%30.37 "Hg10 mi
11:55 PM
Jan 28
30 °FClear.3 mph80%30.37 "Hg10 mi
11:15 PM30 °FClear.3 mph80%30.37 "Hg10 mi
Weather by CustomWeather, © 2014

See weather overviewHow to use our weather pages